Flag for Netherlands Weather past 2 weeks in Apeldoorn, Netherlands

Now
61 °F

Mostly cloudy.


Feels Like: 61 °F
Forecast: 49 / 72 °F
Wind: 6 mph from Northwest

Location: Deelen

Current Time: Jul 31, 2015 at 12:31:23 PM

Latest Report: Jul 31, 2015 at 11:55 AM


Visibility: N/A

Pressure: 30.12 "Hg

Humidity: 52%

Dew point: 43 °F

Location of ApeldoornLocation

Historic Weather in Apeldoorn — Graph

°F

Apeldoorn temperature yesterday

Maximum temperature yesterday: 63 °F (at 4:55 PM)
Minimum temperature yesterday: 46 °F (at 11:55 PM)
Average temperature yesterday: 55 °F

Past Weeks' High & Low Weather Summary

 TemperatureHumidityPressure
High79 °F (Jul 17, 1:25 PM)100% (Jul 18, 1:55 AM)30.12 "Hg (Jul 18, 1:55 AM)
Low39 °F (Jul 31, 6:55 AM)40% (Jul 23, 4:25 PM)29.45 "Hg (Jul 25, 6:25 AM)
Average62 °F78%29.85 "Hg
* Reported Jul 16 11:25 AM — Jul 31 11:25 AM, Apeldoorn, Weather by CustomWeather, © 2015

Note: Actual official high and low records may vary slightly from our data, if they occured in-between our weather recording intervals... More about our weather records

Advertising

Apeldoorn weather history for previous 24 hours

 ConditionsComfort  
Time TempWeatherWind HumidityBarometerVisibility
11:25 AM
Fri, Jul 31
63 °FPartly sunny.7 mph52%30.12 "HgN/A
10:55 AM61 °FPassing clouds.5 mph55%30.12 "HgN/A
10:25 AM59 °FSunny.3 mph55%30.12 "HgN/A
9:25 AM57 °FSunny.3 mph72%30.12 "HgN/A
8:55 AM54 °FSunny.1 mph82%30.12 "HgN/A
8:25 AM50 °FSunny.1 mph88%30.12 "HgN/A
7:55 AM46 °FPassing clouds.1 mph93%30.12 "HgN/A
7:25 AM43 °FPassing clouds.No wind100%30.12 "HgN/A
6:55 AM39 °FPassing clouds.1 mph100%30.12 "HgN/A
6:25 AM41 °FPassing clouds.No wind93%30.12 "HgN/A
5:55 AM41 °FClear.1 mph93%30.12 "HgN/A
5:25 AM41 °FClear.No wind100%30.12 "HgN/A
4:55 AM43 °FPassing clouds.No wind93%30.12 "HgN/A
4:25 AM43 °FPassing clouds.1 mph93%30.12 "HgN/A
3:55 AM43 °FPassing clouds.1 mph93%30.12 "HgN/A
3:25 AM43 °FPassing clouds.1 mph100%30.12 "HgN/A
2:55 AM43 °FClear.No wind100%30.09 "HgN/A
2:25 AM43 °FPassing clouds.1 mph100%30.09 "HgN/A
1:55 AM45 °FPassing clouds.1 mph93%30.09 "HgN/A
1:25 AM45 °FPassing clouds.1 mph93%30.09 "HgN/A
12:55 AM46 °FPassing clouds.1 mph93%30.09 "HgN/A
12:25 AM46 °FClear.3 mph93%30.09 "HgN/A
11:55 PM
Thu, Jul 30
46 °FPassing clouds.3 mph93%30.09 "HgN/A
11:25 PM48 °FPassing clouds.5 mph94%30.09 "HgN/A
10:55 PM50 °FPassing clouds.3 mph88%30.09 "HgN/A
10:25 PM52 °FSunny.5 mph82%30.09 "HgN/A
9:55 PM54 °FPassing clouds.5 mph77%30.07 "HgN/A
9:25 PM55 °FSunny.3 mph72%30.07 "HgN/A
8:55 PM57 °FPassing clouds.8 mph63%30.07 "HgN/A
8:25 PM59 °FScattered clouds.12 mph59%30.04 "HgN/A
7:55 PM61 °FPartly sunny.13 mph55%30.04 "HgN/A
7:25 PM61 °FMore clouds than sun.12 mph59%30.04 "HgN/A
6:55 PM61 °FPassing clouds.10 mph55%30.04 "HgN/A
6:25 PM63 °FScattered clouds.16 mph56%30.01 "HgN/A
5:55 PM63 °FOvercast.13 mph52%30.01 "HgN/A
5:25 PM61 °FBroken clouds.10 mph63%30.01 "HgN/A
4:55 PM63 °FPartly sunny.8 mph56%30.01 "HgN/A
4:25 PM61 °FBroken clouds.9 mph72%30.01 "HgN/A
3:55 PM59 °FMostly cloudy.8 mph82%30.01 "HgN/A
3:25 PM59 °FOvercast.8 mph82%30.01 "HgN/A
2:55 PM61 °FScattered clouds.10 mph83%29.98 "HgN/A
2:25 PM57 °FMostly cloudy.9 mph94%29.98 "HgN/A
1:55 PM55 °FBroken clouds.10 mph94%29.98 "HgN/A
1:25 PM55 °FBroken clouds.10 mph88%29.98 "HgN/A
12:55 PM61 °FMostly cloudy.12 mph72%29.95 "HgN/A
12:25 PM61 °FBroken clouds.8 mph72%29.95 "HgN/A
Weather by CustomWeather, © 2015

See weather overviewHow to use our weather pages